Overview Statistics Trail Chart Weather Telemetry Raw packets
 

This is the latest recevied weather packets stored in our database for station/object KH6DH-13. If no packets are shown the sender has not sent any weather packets the latest 10 day(s).

<< 9 10 11 12 13 14 15 >>
Time Temp. Humidity Pressure Rain* Wind** Luminosity Snow
1788521257 25° C - - 0 mm 2.24 m/s, 76° - -
1788520656 24.44° C - - 0 mm 1.34 m/s, 343° - -
1788520055 24.44° C - - 0 mm 1.79 m/s, 359° - -
1788519454 25° C - - 0 mm 0.89 m/s, 76° - -
1788518853 25° C - - 0 mm 0.45 m/s, 287° - -
1788518252 25.56° C - - 0 mm 0.89 m/s, 163° - -
1788517651 25° C - - 0 mm 2.68 m/s, 15° - -
1788517051 25° C - - 0 mm 1.79 m/s, 91° - -
1788516449 25° C - - 0 mm 1.34 m/s, 338° - -
1788515846 25.56° C - - 0 mm 2.68 m/s, 59° - -
1788515245 25.56° C - - 0 mm 1.79 m/s, 56° - -
1788514644 25.56° C - - 0 mm 2.24 m/s, 198° - -
1788514043 25.56° C - - 0 mm 2.68 m/s, 21° - -
1788513442 25.56° C - - 0 mm 1.79 m/s, 70° - -
1788512841 25.56° C - - 0 mm 3.13 m/s, 91° - -
1788512240 25.56° C - - 0 mm 3.13 m/s, 27° - -
1788511639 25.56° C - - 0 mm 2.24 m/s, 359° - -
1788511038 25.56° C - - 0 mm 1.79 m/s, 69° - -
1788510437 25.56° C - - 0 mm 0 m/s - -
1788509836 25.56° C - - 0 mm 3.58 m/s, 46° - -
1788509235 26.11° C - - 0 mm 0.89 m/s, 107° - -
1788508634 25.56° C - - 0 mm 3.13 m/s, 72° - -
1788508033 25.56° C - - 0 mm 2.68 m/s, 104° - -
1788507432 25.56° C - - 0 mm 1.34 m/s, 229° - -
1788506831 25.56° C - - 0 mm 2.68 m/s, 63° - -

* Rain latest hour (hover to see other rain measurements)
** Current wind speed in m/s (hover to see current wind gust speed)